TimeAKDT,TemperatureF,Dew PointF,Humidity,Sea Level PressureIn,VisibilityMPH,Wind Direction,Wind SpeedMPH,Gust SpeedMPH,PrecipitationIn,Events,Conditions,WindDirDegrees,DateUTC
12:01 AM,41.0,41.0,100,29.75,1.0,East,16.1,-,N/A,,Overcast,80,2013-08-17 08:01:00
12:42 AM,41.0,39.2,93,29.76,1.0,East,15.0,-,N/A,,Overcast,90,2013-08-17 08:42:00
1:01 AM,41.0,39.2,93,29.76,1.2,East,15.0,-,N/A,,Overcast,90,2013-08-17 09:01:00
1:13 AM,41.0,39.2,93,29.76,1.0,East,12.7,-,N/A,,Overcast,90,2013-08-17 09:13:00
1:31 AM,41.0,39.2,93,29.75,1.2,East,11.5,-,N/A,,Overcast,90,2013-08-17 09:31:00
1:56 AM,41.0,41.0,100,29.76,1.2,East,11.5,-,N/A,,Overcast,100,2013-08-17 09:56:00
2:01 AM,41.0,41.0,100,29.76,1.5,ESE,11.5,-,N/A,,Overcast,110,2013-08-17 10:01:00
2:27 AM,42.8,42.8,100,29.75,2.0,ESE,10.4,-,0.00,Rain,Light Rain,110,2013-08-17 10:27:00
2:43 AM,44.6,42.8,93,29.75,4.0,ESE,13.8,-,0.00,Rain,Light Rain,120,2013-08-17 10:43:00
3:01 AM,44.1,43.0,96,29.75,3.0,ESE,13.8,-,0.00,Rain,Light Rain,110,2013-08-17 11:01:00
3:37 AM,44.6,44.6,100,29.75,2.5,ESE,12.7,-,0.00,,Overcast,120,2013-08-17 11:37:00
3:48 AM,44.6,44.6,100,29.75,3.0,ESE,11.5,-,0.00,,Overcast,120,2013-08-17 11:48:00
4:01 AM,44.1,43.0,96,29.75,4.0,ESE,11.5,-,0.00,,Overcast,110,2013-08-17 12:01:00
4:11 AM,44.6,42.8,93,29.75,1.8,ESE,11.5,-,N/A,,Overcast,110,2013-08-17 12:11:00
4:31 AM,44.6,42.8,93,29.75,1.8,ESE,11.5,-,0.00,Rain,Light Rain,110,2013-08-17 12:31:00
4:57 AM,44.6,42.8,93,29.75,1.8,ESE,11.5,-,0.00,,Overcast,110,2013-08-17 12:57:00
5:01 AM,44.6,42.8,93,29.75,2.0,ESE,11.5,-,0.00,,Overcast,110,2013-08-17 13:01:00
5:07 AM,44.1,43.0,96,29.75,2.0,ESE,11.5,-,0.00,,Overcast,120,2013-08-17 13:07:00
5:17 AM,44.6,42.8,93,29.75,2.5,ESE,11.5,-,N/A,,Overcast,120,2013-08-17 13:17:00
5:30 AM,44.6,42.8,93,29.75,1.5,ESE,10.4,-,N/A,,Overcast,120,2013-08-17 13:30:00
6:15 AM,44.6,42.8,93,29.76,1.2,ESE,9.2,-,N/A,Rain,Light Rain,120,2013-08-17 14:15:00
6:24 AM,44.6,42.8,93,29.75,1.0,ESE,9.2,-,N/A,Rain,Light Rain,110,2013-08-17 14:24:00
6:35 AM,44.6,42.8,93,29.76,1.2,ESE,9.2,-,N/A,Rain,Light Rain,110,2013-08-17 14:35:00
6:48 AM,44.6,42.8,93,29.75,1.5,East,8.1,-,N/A,,Overcast,100,2013-08-17 14:48:00
6:53 AM,44.6,42.8,93,29.76,1.0,ESE,6.9,-,N/A,,Overcast,110,2013-08-17 14:53:00
7:01 AM,44.1,43.0,96,29.75,1.0,East,6.9,-,N/A,,Overcast,100,2013-08-17 15:01:00
7:06 AM,44.6,42.8,93,29.75,1.2,East,8.1,-,N/A,,Overcast,100,2013-08-17 15:06:00
7:15 AM,44.6,42.8,93,29.75,3.0,East,8.1,-,N/A,,Overcast,100,2013-08-17 15:15:00
7:24 AM,44.6,42.8,93,29.76,6.0,ESE,8.1,-,N/A,,Overcast,110,2013-08-17 15:24:00
7:31 AM,44.6,42.8,93,29.76,7.0,ESE,8.1,-,N/A,,Overcast,110,2013-08-17 15:31:00
8:01 AM,44.6,44.6,100,29.76,4.0,ESE,9.2,-,0.01,,Overcast,120,2013-08-17 16:01:00
8:20 AM,44.6,44.6,100,29.76,1.8,ESE,10.4,-,0.01,,Overcast,120,2013-08-17 16:20:00
8:30 AM,44.6,44.6,100,29.76,7.0,ESE,9.2,-,0.01,,Overcast,110,2013-08-17 16:30:00
9:01 AM,44.6,44.6,100,29.76,10.0,ESE,9.2,-,0.01,,Overcast,110,2013-08-17 17:01:00
9:20 AM,44.6,44.6,100,29.76,10.0,ESE,8.1,-,0.01,,Overcast,110,2013-08-17 17:20:00
9:44 AM,44.6,44.6,100,29.76,6.0,ESE,10.4,-,0.01,,Overcast,120,2013-08-17 17:44:00
10:01 AM,45.0,44.1,97,29.76,10.0,ESE,9.2,-,0.01,,Overcast,120,2013-08-17 18:01:00
11:01 AM,46.0,45.0,96,29.76,10.0,ESE,9.2,-,N/A,,Overcast,110,2013-08-17 19:01:00
11:09 AM,46.4,44.6,93,29.76,10.0,ESE,9.2,-,N/A,,Overcast,110,2013-08-17 19:09:00
12:01 PM,46.9,45.0,93,29.75,10.0,ESE,9.2,-,N/A,,Overcast,110,2013-08-17 20:01:00
12:17 PM,46.4,44.6,93,29.75,10.0,East,9.2,-,N/A,,Overcast,100,2013-08-17 20:17:00
1:01 PM,46.0,45.0,96,29.75,7.0,East,9.2,-,N/A,,Overcast,100,2013-08-17 21:01:00
1:12 PM,44.6,44.6,100,29.75,7.0,East,9.2,-,N/A,,Overcast,90,2013-08-17 21:12:00
1:41 PM,44.6,44.6,100,29.75,1.8,East,10.4,-,N/A,,Overcast,100,2013-08-17 21:41:00
1:48 PM,44.6,44.6,100,29.75,0.8,East,10.4,-,N/A,,Overcast,100,2013-08-17 21:48:00
1:54 PM,44.6,44.6,100,29.75,1.2,East,10.4,-,N/A,,Overcast,100,2013-08-17 21:54:00
1:59 PM,44.6,44.6,100,29.75,3.0,East,10.4,-,N/A,,Overcast,100,2013-08-17 21:59:00
2:01 PM,45.0,44.1,97,29.75,5.0,East,10.4,-,N/A,,Overcast,100,2013-08-17 22:01:00
3:01 PM,45.0,44.1,97,29.74,8.0,East,9.2,-,N/A,,Mostly Cloudy,90,2013-08-17 23:01:00
3:32 PM,44.6,44.6,100,29.73,1.5,East,10.4,-,N/A,,Mostly Cloudy,100,2013-08-17 23:32:00
3:36 PM,44.6,44.6,100,29.73,1.0,East,10.4,-,N/A,,Mostly Cloudy,100,2013-08-17 23:36:00
3:45 PM,46.4,44.6,93,29.73,2.0,East,10.4,-,N/A,,Mostly Cloudy,100,2013-08-17 23:45:00
3:51 PM,46.4,44.6,93,29.73,3.0,East,10.4,-,N/A,,Scattered Clouds,100,2013-08-17 23:51:00
4:01 PM,46.4,44.6,93,29.73,9.0,East,9.2,-,N/A,,Mostly Cloudy,100,2013-08-18 00:01:00
4:13 PM,46.4,44.6,93,29.73,1.2,East,10.4,-,N/A,,Mostly Cloudy,100,2013-08-18 00:13:00
4:26 PM,46.4,44.6,93,29.73,1.2,East,10.4,-,N/A,,Overcast,100,2013-08-18 00:26:00
4:34 PM,46.4,44.6,93,29.72,1.0,East,10.4,-,N/A,,Overcast,100,2013-08-18 00:34:00
4:42 PM,46.4,44.6,93,29.72,3.0,East,9.2,-,N/A,,Overcast,100,2013-08-18 00:42:00
4:55 PM,46.4,44.6,93,29.72,1.8,East,9.2,-,N/A,,Overcast,100,2013-08-18 00:55:00
5:01 PM,46.0,45.0,96,29.72,1.8,East,10.4,-,N/A,,Overcast,100,2013-08-18 01:01:00
5:05 PM,46.4,44.6,93,29.72,3.0,East,10.4,-,N/A,,Overcast,100,2013-08-18 01:05:00
5:43 PM,46.4,44.6,93,29.72,10.0,East,9.2,-,N/A,,Overcast,90,2013-08-18 01:43:00
6:01 PM,46.0,45.0,96,29.72,10.0,East,10.4,-,N/A,,Overcast,100,2013-08-18 02:01:00
6:17 PM,44.6,44.6,100,29.71,1.8,East,10.4,-,N/A,,Overcast,100,2013-08-18 02:17:00
6:23 PM,44.6,44.6,100,29.71,0.8,East,10.4,-,N/A,,Overcast,100,2013-08-18 02:23:00
6:28 PM,46.4,44.6,93,29.71,1.2,East,10.4,-,N/A,,Overcast,100,2013-08-18 02:28:00
6:33 PM,46.4,44.6,93,29.71,3.0,ESE,11.5,-,N/A,,Overcast,110,2013-08-18 02:33:00
7:01 PM,46.0,45.0,96,29.71,10.0,East,9.2,-,N/A,,Overcast,100,2013-08-18 03:01:00
8:01 PM,46.0,45.0,96,29.70,9.0,East,9.2,-,N/A,,Overcast,100,2013-08-18 04:01:00
8:16 PM,44.6,44.6,100,29.70,1.8,ESE,10.4,-,N/A,,Overcast,110,2013-08-18 04:16:00
8:20 PM,44.6,44.6,100,29.70,0.8,ESE,9.2,-,N/A,,Overcast,110,2013-08-18 04:20:00
8:29 PM,46.4,44.6,93,29.70,1.2,ESE,10.4,-,N/A,,Overcast,110,2013-08-18 04:29:00
8:32 PM,46.4,46.4,100,29.70,3.0,ESE,10.4,-,N/A,,Overcast,120,2013-08-18 04:32:00
8:39 PM,46.4,46.4,100,29.70,1.8,ESE,10.4,-,N/A,,Overcast,110,2013-08-18 04:39:00
8:48 PM,46.4,46.4,100,29.71,2.0,ESE,10.4,-,N/A,,Overcast,120,2013-08-18 04:48:00
8:56 PM,46.4,44.6,93,29.70,8.0,ESE,10.4,-,N/A,,Overcast,120,2013-08-18 04:56:00
9:01 PM,46.0,45.0,96,29.71,8.0,ESE,10.4,-,N/A,,Overcast,120,2013-08-18 05:01:00
9:49 PM,46.4,44.6,93,29.70,10.0,ESE,9.2,-,N/A,,Overcast,120,2013-08-18 05:49:00
10:01 PM,46.0,45.0,96,29.70,10.0,SE,6.9,-,N/A,,Overcast,140,2013-08-18 06:01:00
10:29 PM,46.4,44.6,93,29.70,10.0,SSE,6.9,-,N/A,,Overcast,150,2013-08-18 06:29:00
11:01 PM,46.0,45.0,96,29.70,10.0,SE,8.1,-,N/A,,Overcast,140,2013-08-18 07:01:00